{"data":{"norad_id":49759,"intl_designator":"2021-115AM","name":"STARLINK-3204","alt_names":[],"object_type":"PAYLOAD","status":"ACTIVE","operator":null,"country":"US","launch_date":"2021-12-02","launch_site_code":"AFETR","launch_vehicle":null,"mission":null,"orbit_class":"UNKNOWN","rcs_meters":null,"size_class":null,"mass_kg":null,"dimensions":null,"purposes":["comms"],"wikipedia_slug":null,"has_3d_model":false,"image_url":null,"decayed_at":null,"tle_current":{"epoch":"2026-05-25T01:23:49.382016Z","epoch_age_seconds":60165,"freshness":"FRESH","line1":"1 49759U 21115AM  26145.05821044 -.00000554  00000+0 -16740-4 0  9993","line2":"2 49759  53.2140 156.2875 0000528  23.8574 336.2442 15.08832957247206","mean_motion":15.08832957,"eccentricity":5.28e-5,"inclination_deg":53.214,"raan_deg":156.2875,"arg_perigee_deg":23.8574,"mean_anomaly_deg":336.2442,"bstar":-1.674e-5,"rev_number":24720,"period_min":95.438000165581,"perigee_km":539.39965146005,"apogee_km":540.13018190245,"semimajor_km":6917.9019166812,"source":"CELESTRAK","updated_at":"2026-05-25T13:38:16.838962Z"}}}